, AK

(GMT )
Denali Park

Weather History for PAIN - October, 2012

Change the Weather History Date:

Monday, October 8, 2012

  Actual Average Record
Temperature  
Mean Temperature 36 °F -  
Max Temperature 41 °F 37 °F 55 °F (1969)
Min Temperature 32 °F 19 °F 0 °F (2014)
Degree Days  
Heating Degree Days 28    
Moisture  
Dew Point 36 °F    
Average Humidity 98    
Maximum Humidity 100    
Minimum Humidity 93    
Precipitation  
Precipitation 0.00 in - - ()
Sea Level Pressure  
Sea Level Pressure 30.15 in    
Wind  
Wind Speed 3 mph (North)    
Max Wind Speed 13 mph    
Max Gust Speed 21 mph    
Visibility 9 miles    
Events      
Averages and records for this station are not official NWS values.
T = Trace of Precipitation, MM = Missing Value Source: NWS Daily Summary

Daily Weather History Graph

Daily Weather History Graph

Search for Another Location

Airport or City:

Trip Planner

Search our weather history database for the weather conditions in past years. The results will help you decide how hot, cold, wet, or windy it might be!

Date:

Astronomy

Oct. 08, 2012 Rise Set
Actual Time 8:26 AM AKDT 6:58 PM AKDT
Civil Twilight 7:39 AM AKDT 7:45 PM AKDT
Nautical Twilight 6:44 AM AKDT 8:39 PM AKDT
Astronomical Twilight 5:47 AM AKDT 9:36 PM AKDT
Moon No Moon Rise 4:57 PM AKDT (10/8)
Length of Visible Light 12h 06m
Length of Day
10h 32m
Last Quarter, 45% of the Moon is Illuminated
Oct 8
Last Quarter
Oct 15
New
Oct 21
First Quarter
Oct 29
Full
Nov 6
Last Quarter

Hourly Weather History & Observations

Time (AKDT) Temp. Windchill Dew Point Humidity Pressure Visibility Wind Dir Wind Speed Gust Speed Precip Events Conditions
12:16 AM 39.2 °F 37.0 °F 37.4 °F 93% 30.16 in 10.0 mi WSW 3.5 mph - N/A   Overcast
12:36 AM 39.2 °F 37.0 °F 37.4 °F 93% 30.16 in 10.0 mi SW 3.5 mph - N/A   Overcast
12:56 AM 39.2 °F - 39.2 °F 100% 30.16 in 10.0 mi Calm Calm - N/A   Overcast
1:16 AM 39.2 °F - 39.2 °F 100% 30.16 in 10.0 mi Calm Calm - N/A   Overcast
1:36 AM 39.2 °F - 39.2 °F 100% 30.16 in 10.0 mi Calm Calm - N/A   Overcast
1:56 AM 39.2 °F - 39.2 °F 100% 30.16 in 10.0 mi Calm Calm - N/A   Overcast
2:16 AM 39.2 °F 37.0 °F 39.2 °F 100% 30.15 in 10.0 mi WSW 3.5 mph - N/A   Overcast
2:36 AM 39.2 °F - 39.2 °F 100% 30.15 in 10.0 mi Calm Calm - N/A   Overcast
2:56 AM 39.2 °F - 39.2 °F 100% 30.15 in 10.0 mi Calm Calm - N/A   Overcast
3:16 AM 39.2 °F - 39.2 °F 100% 30.15 in 10.0 mi Calm Calm - N/A   Overcast
3:56 AM 39.2 °F - 39.2 °F 100% 30.14 in 10.0 mi Calm Calm - N/A   Overcast
4:16 AM 39.2 °F - 39.2 °F 100% 30.13 in 10.0 mi Calm Calm - N/A   Overcast
4:36 AM 39.2 °F - 39.2 °F 100% 30.13 in 10.0 mi Calm Calm - N/A   Overcast
4:56 AM 39.2 °F - 39.2 °F 100% 30.13 in 10.0 mi Calm Calm - N/A   Overcast
5:16 AM 39.2 °F - 39.2 °F 100% 30.13 in 10.0 mi Calm Calm - N/A   Overcast
5:36 AM 39.2 °F - 37.4 °F 93% 30.12 in 10.0 mi Calm Calm - N/A   Overcast
5:56 AM 39.2 °F - 37.4 °F 93% 30.12 in 10.0 mi Calm Calm - N/A   Overcast
6:16 AM 39.2 °F - 37.4 °F 93% 30.12 in 10.0 mi Calm Calm - N/A   Overcast
6:36 AM 39.2 °F - 37.4 °F 93% 30.11 in 10.0 mi Calm Calm - N/A   Overcast
6:56 AM 39.2 °F - 37.4 °F 93% 30.10 in 10.0 mi Calm Calm - N/A   Overcast
7:16 AM 39.2 °F - 37.4 °F 93% 30.10 in 10.0 mi Calm Calm - N/A   Overcast
7:36 AM 39.2 °F - 39.2 °F 100% 30.10 in 10.0 mi Calm Calm - N/A   Overcast
7:56 AM 39.2 °F - 39.2 °F 100% 30.10 in 10.0 mi Calm Calm - N/A   Overcast
8:16 AM 39.2 °F - 37.4 °F 93% 30.10 in 10.0 mi Calm Calm - N/A   Overcast
8:36 AM 39.2 °F - 37.4 °F 93% 30.09 in 10.0 mi Calm Calm - N/A   Overcast
8:56 AM 39.2 °F - 39.2 °F 100% 30.09 in 10.0 mi Calm Calm - N/A   Overcast
9:16 AM 41.0 °F - 39.2 °F 93% 30.10 in 10.0 mi Calm Calm - N/A   Overcast
9:36 AM 39.2 °F - 39.2 °F 100% 30.10 in 10.0 mi Calm Calm - N/A   Overcast
9:56 AM 39.2 °F - 39.2 °F 100% 30.10 in 10.0 mi Calm Calm - N/A   Overcast
10:16 AM 39.2 °F - 39.2 °F 100% 30.10 in 10.0 mi Calm Calm - N/A   Overcast
10:36 AM 41.0 °F - 41.0 °F 100% 30.11 in 9.0 mi Calm Calm - N/A   Overcast
10:56 AM 39.2 °F - 39.2 °F 100% 30.11 in 10.0 mi Calm Calm - N/A   Overcast
11:16 AM 39.2 °F 35.9 °F 39.2 °F 100% 30.11 in 10.0 mi NNE 4.6 mph - N/A   Overcast
11:36 AM 37.4 °F 34.9 °F 37.4 °F 100% 30.12 in 8.0 mi North 3.5 mph - N/A   Overcast
11:56 AM 37.4 °F 32.1 °F 37.4 °F 100% 30.12 in 10.0 mi North 6.9 mph - N/A   Overcast
12:16 PM 37.4 °F 32.8 °F 37.4 °F 100% 30.12 in 8.0 mi North 5.8 mph - N/A   Overcast
12:36 PM 37.4 °F 33.8 °F 37.4 °F 100% 30.12 in 9.0 mi North 4.6 mph - N/A   Overcast
12:56 PM 37.4 °F 32.1 °F 35.6 °F 93% 30.13 in 8.0 mi North 6.9 mph - N/A   Overcast
1:16 PM 37.4 °F 31.4 °F 35.6 °F 93% 30.13 in 9.0 mi North 8.1 mph - N/A   Overcast
1:36 PM 37.4 °F 30.3 °F 35.6 °F 93% 30.13 in 10.0 mi North 10.4 mph 16.1 mph N/A   Overcast
1:56 PM 37.4 °F 29.8 °F 37.4 °F 100% 30.13 in 10.0 mi North 11.5 mph 17.3 mph N/A   Overcast
2:16 PM 35.6 °F 27.1 °F 35.6 °F 100% 30.14 in 10.0 mi North 12.7 mph 20.7 mph N/A   Overcast
2:36 PM 35.6 °F 27.1 °F 35.6 °F 100% 30.15 in 7.0 mi North 12.7 mph 19.6 mph N/A   Overcast
2:56 PM 35.6 °F 27.5 °F 33.8 °F 93% 30.15 in 9.0 mi North 11.5 mph 18.4 mph N/A   Overcast
3:16 PM 35.6 °F 27.5 °F 35.6 °F 100% 30.16 in 9.0 mi North 11.5 mph 18.4 mph N/A   Overcast
3:36 PM 33.8 °F 24.8 °F 33.8 °F 100% 30.16 in 9.0 mi North 12.7 mph 19.6 mph N/A   Overcast
3:56 PM 33.8 °F 24.8 °F 33.8 °F 100% 30.16 in 9.0 mi North 12.7 mph 19.6 mph N/A   Overcast
4:36 PM 33.8 °F 25.3 °F 33.8 °F 100% 30.17 in 10.0 mi North 11.5 mph 18.4 mph N/A   Overcast
4:56 PM 33.8 °F 26.4 °F 33.8 °F 100% 30.18 in 8.0 mi North 9.2 mph 16.1 mph N/A   Overcast
5:16 PM 33.8 °F 26.4 °F 33.8 °F 100% 30.18 in 4.0 mi North 9.2 mph 16.1 mph N/A   Overcast
5:56 PM 33.8 °F 25.3 °F 33.8 °F 100% 30.18 in 4.0 mi North 11.5 mph 16.1 mph N/A   Overcast
6:16 PM 33.8 °F 27.0 °F 33.8 °F 100% 30.19 in 8.0 mi North 8.1 mph 17.3 mph N/A   Overcast
6:36 PM 33.8 °F 25.8 °F 33.8 °F 100% 30.19 in 6.0 mi North 10.4 mph 17.3 mph N/A   Overcast
6:56 PM 33.8 °F 25.8 °F 33.8 °F 100% 30.19 in 5.0 mi North 10.4 mph 16.1 mph N/A   Overcast
7:16 PM 33.8 °F 27.7 °F 33.8 °F 100% 30.20 in 6.0 mi North 6.9 mph - N/A   Overcast
7:36 PM 33.8 °F 27.7 °F 33.8 °F 100% 30.21 in 6.0 mi North 6.9 mph - N/A   Overcast
7:56 PM 33.8 °F 27.0 °F 33.8 °F 100% 30.21 in 5.0 mi North 8.1 mph - N/A   Overcast
8:16 PM 33.8 °F 27.0 °F 33.8 °F 100% 30.20 in 7.0 mi North 8.1 mph - N/A   Overcast
8:36 PM 33.8 °F 27.0 °F 33.8 °F 100% 30.20 in 10.0 mi North 8.1 mph - N/A   Overcast
8:56 PM 33.8 °F 28.6 °F 33.8 °F 100% 30.20 in 10.0 mi North 5.8 mph - N/A   Overcast
9:16 PM 33.8 °F 27.7 °F 33.8 °F 100% 30.21 in 8.0 mi North 6.9 mph - N/A   Overcast
9:36 PM 33.8 °F 28.6 °F 33.8 °F 100% 30.22 in 6.0 mi North 5.8 mph - N/A   Overcast
9:56 PM 33.8 °F 29.6 °F 33.8 °F 100% 30.22 in 3.0 mi North 4.6 mph - N/A   Overcast
10:16 PM 33.8 °F 27.7 °F 33.8 °F 100% 30.23 in 5.0 mi North 6.9 mph - N/A   Overcast
10:36 PM 33.8 °F 27.7 °F 33.8 °F 100% 30.23 in 7.0 mi North 6.9 mph - N/A   Overcast
10:56 PM 32.0 °F 24.2 °F 32.0 °F 100% 30.23 in 6.0 mi North 9.2 mph - N/A   Mostly Cloudy
11:16 PM 32.0 °F 25.6 °F 32.0 °F 100% 30.23 in 5.0 mi North 6.9 mph - N/A   Mostly Cloudy
11:36 PM 32.0 °F 25.6 °F 32.0 °F 100% 30.23 in 7.0 mi North 6.9 mph - N/A   Overcast
11:56 PM 33.8 °F 30.8 °F 33.8 °F 100% 30.23 in 7.0 mi North 3.5 mph - N/A   Overcast